Temp
10 11 8 8 8 7 7 7 7 9 10 8 8 8 10 10 9 7 8 8 8 7 7 7 6 5 5 4 4 4 3 3 3 4 4 3 4 3 4 5 6 10 11 13
10 8 7 7 7 7 7 7 8 8 9 7 8 7 9 9 9 8 8 7 7 7 7 7 6 5 4 4 4 3 3 3 3 3 3 3 2 2 3 4 6 8 10 13
9 7 6 7 8 7 7 7 6 5 7 8 6 9 8 8 8 8 7 6 7 7 6 6 5 4 4 4 3 3 2 2 2 2 2 3 2 2 3 4 6 9 9 11
8 7 7 7 8 6 5 7 5 5 5 6 6 7 10 10 8 8 8 8 7 6 6 6 5 4 3 3 3 2 2 2 2 2 2 3 3 3 3 4 5 7 9 10
8 6 5 7 5 5 5 5 5 6 4 3 6 5 9 9 8 8 8 7 6 6 6 5 4 3 2 2 2 2 2 1 1 1 2 2 3 3 3 3 4 6 8 9
6 5 5 5 5 6 5 5 8 5 6 5 4 5 8 10 8 7 7 6 6 6 5 4 3 2 2 2 2 1 1 1 1 1 1 2 2 3 3 3 4 6 9 9
8 6 5 4 4 6 4 4 6 7 7 8 4 6 7 8 7 6 5 6 5 5 4 3 2 1 1 1 1 1 1 1 1 1 2 2 2 3 3 3 4 5 7 9
6 9 4 4 2 1 3 3 2 2 5 5 5 4 8 8 7 7 6 5 4 4 3 2 1 0 -0 0 0 0 1 1 1 1 1 2 2 2 3 3 4 5 7 10
4 8 6 3 3 2 3 2 2 1 4 3 6 8 9 7 7 7 5 4 3 2 2 1 0 -0 -1 -1 -1 -0 -0 -0 -0 1 1 1 2 2 3 2 3 4 7 10
2 1 5 4 3 3 2 2 1 2 1 2 6 6 7 5 4 3 3 2 1 1 0 0 0 -1 -1 -1 -1 -1 -1 -1 -0 0 1 1 2 2 3 2 4 4 6 9
1 -0 6 6 3 1 3 2 2 1 1 1 2 5 5 3 2 2 1 0 -1 -1 -1 -1 -1 -1 -1 -2 -2 -2 -1 -1 -1 -0 1 1 2 2 3 2 4 4 6 8
1 0 1 5 -0 -1 1 1 0 -0 1 2 1 1 5 4 2 1 -1 -1 -2 -3 -2 -2 -2 -2 -2 -2 -2 -2 -2 -2 -1 -1 1 1 2 2 3 3 4 4 5 8
1 2 4 5 1 -0 0 1 -1 -1 -1 -1 -1 1 5 3 1 -0 -1 -2 -3 -3 -3 -2 -2 -3 -3 -3 -3 -3 -2 -2 -1 -1 0 1 2 2 3 3 4 4 6 7
2 2 2 5 4 4 1 2 0 -1 -2 1 1 1 1 -0 -1 -1 -3 -3 -4 -4 -4 -4 -4 -4 -4 -4 -3 -3 -3 -2 -2 -1 -1 1 2 3 3 3 5 5 6 8
1 0 3 4 3 2 1 0 -1 -3 -2 -2 -0 -2 -2 -1 -2 -3 -4 -4 -4 -4 -5 -4 -5 -5 -4 -4 -4 -3 -3 -2 -2 -1 -0 1 3 3 3 3 5 5 6 8
1 1 2 -1 2 -1 -0 -0 -1 -3 -3 -3 -2 -3 -1 -1 -3 -4 -4 -4 -5 -5 -4 -5 -5 -5 -4 -4 -4 -4 -3 -2 -1 -0 0 2 4 4 4 4 5 6 7 8
1 1 0 3 4 3 1 -2 -3 -2 -1 -2 -3 -2 -2 -3 -4 -4 -5 -5 -5 -5 -6 -6 -6 -5 -5 -5 -5 -4 -3 -1 -1 0 1 3 4 4 4 5 6 6 7 8
1 1 1 1 3 5 -1 -2 -2 -3 -2 -2 -3 -3 -3 -4 -4 -5 -5 -4 -5 -6 -6 -6 -6 -5 -5 -5 -4 -3 -2 -1 -0 1 2 4 5 4 5 6 7 7 8 10
1 1 1 1 3 6 2 -0 -0 -2 -3 -2 -4 -3 -4 -4 -5 -2 -1 -5 -6 -6 -6 -6 -6 -6 -5 -4 -3 -2 -1 -1 0 1 3 5 5 5 5 6 7 8 8 10
0 1 -0 2 1 5 3 2 1 -3 -1 0 -3 -4 -5 -5 -5 -3 -5 -6 -6 -6 -6 -6 -6 -6 -5 -3 -1 0 0 0 1 2 4 6 5 6 7 7 8 8 9 10
-0 -1 -0 3 3 5 2 1 1 1 3 -1 -3 -4 -5 -6 -6 -6 -6 -6 -6 -6 -6 -6 -6 -6 -4 -3 1 3 3 3 3 4 6 6 6 7 8 8 9 10 10 10
2 3 4 3 1 5 1 3 1 1 -0 -1 -3 -4 -5 -6 -6 -5 -6 -6 -6 -6 -6 -6 -6 -6 -4 -4 -2 1 5 6 7 6 6 7 7 7 8 9 10 9 9 9
1 2 4 4 8 3 3 2 2 0 -1 -2 -3 -4 -6 -6 -6 -6 -6 -6 -6 -6 -6 -7 -6 -5 -5 -4 -3 -2 -1 4 7 7 7 6 7 8 10 10 9 9 9 8
1 -2 -0 -0 5 4 2 2 0 0 -2 -2 -3 -5 -5 -6 -6 -6 -6 -6 -6 -6 -7 -7 -7 -5 -5 -4 -4 -3 -1 4 5 6 6 6 7 10 10 9 9 9 8 8
2 -2 -0 1 2 3 2 0 -0 -2 -2 -3 -4 -5 -5 -6 -7 -7 -7 -7 -7 -6 -7 -7 -7 -6 -5 -4 -4 -4 -2 2 4 4 6 8 8 8 8 8 8 8 8 8
-2 -0 0 6 4 2 1 0 -1 -3 -4 -5 -6 -6 -7 -7 -7 -7 -7 -7 -7 -7 -7 -7 -7 -6 -6 -5 -4 -5 -3 1 4 4 5 6 6 7 7 7 7 8 8 8
Height
839 834 844 847 847 851 848 839 829 815 809 817 808 803 794 794 800 804 805 806 809 810 811 809 807 805 801 798 796 793 791 789 786 781 779 776 773 774 769 761 769 764 763 764
836 845 855 853 851 851 842 834 822 815 813 818 801 797 788 793 796 799 801 805 808 809 807 805 803 802 799 796 793 791 788 786 784 781 779 778 775 764 770 762 765 761 756 762
846 859 861 855 848 850 840 832 834 835 819 807 814 780 787 793 796 801 806 809 808 806 804 803 801 798 796 792 790 788 785 782 780 778 776 774 773 770 763 761 764 759 761 760
855 858 860 853 849 857 849 835 839 833 831 807 814 794 769 778 792 795 798 799 803 805 802 801 799 796 793 789 786 783 781 778 776 773 771 769 765 769 770 772 760 766 759 759
856 863 864 856 864 860 853 843 832 823 834 836 812 812 772 779 786 786 793 799 803 802 800 798 795 792 789 784 780 777 775 772 770 768 767 766 768 767 770 759 759 754 759 758
865 870 872 871 866 855 854 838 809 824 820 816 822 821 780 767 787 791 794 800 800 797 797 795 792 788 783 779 775 771 768 765 764 762 760 758 756 754 750 752 749 748 752 755
853 863 869 873 863 854 859 844 813 807 799 782 816 806 784 781 790 796 800 798 798 795 794 791 787 783 778 773 768 763 760 756 755 755 753 752 751 750 750 754 754 744 755 754
872 838 873 874 882 885 869 868 871 868 820 820 814 810 774 780 788 791 794 798 796 794 791 787 783 779 773 766 761 756 752 748 747 747 745 745 744 745 743 744 749 741 750 745
886 853 865 878 878 881 872 873 879 880 844 835 795 777 766 778 784 786 795 795 792 789 786 782 776 771 766 760 753 748 744 741 739 738 737 736 736 736 735 735 738 741 743 741
904 899 869 877 881 882 879 886 880 875 863 849 787 782 771 791 794 797 792 791 789 784 778 773 766 760 756 750 744 739 734 730 728 727 728 726 727 728 730 733 730 733 740 739
912 915 865 863 877 890 877 877 880 885 875 864 839 789 786 799 799 796 794 792 786 776 768 762 757 751 744 739 734 729 723 719 717 717 718 717 717 720 722 725 728 732 735 734
912 908 892 865 892 893 890 886 889 886 872 866 864 816 789 796 799 799 798 791 783 775 763 754 747 739 732 727 722 717 712 709 707 707 706 707 709 711 713 714 721 722 726 726
912 896 875 858 888 892 888 883 893 893 888 878 874 817 787 798 803 803 797 788 779 765 752 744 735 729 722 714 709 704 700 697 696 697 696 696 697 699 702 705 709 713 715 721
908 901 895 867 864 867 877 875 883 890 886 856 840 811 808 810 808 797 790 782 772 758 746 736 725 718 710 702 695 690 686 684 684 684 685 684 686 689 691 697 702 708 708 716
910 906 885 874 868 871 874 876 880 890 876 872 836 844 825 818 808 801 792 779 763 747 738 727 717 705 695 687 681 676 672 671 672 673 674 673 677 680 686 690 695 700 706 709
908 899 888 886 865 880 876 875 876 882 877 863 851 837 825 816 814 800 789 775 759 742 726 716 705 693 680 672 666 662 658 658 661 662 663 665 668 674 679 685 690 694 702 701
907 902 896 863 852 857 863 871 876 865 857 855 845 822 817 816 810 799 780 771 754 736 723 708 695 681 668 657 652 648 646 647 650 653 655 654 659 664 671 678 682 689 695 698
900 899 896 879 854 830 863 865 866 863 849 845 838 828 825 815 806 797 782 768 752 735 717 700 686 670 656 645 637 635 636 637 640 643 647 647 653 660 667 672 677 683 689 695
900 901 894 885 864 827 844 857 857 857 839 837 842 827 819 809 798 775 771 765 748 730 714 701 684 667 649 635 625 622 624 629 633 636 638 641 647 655 662 665 672 678 685 690
902 901 904 880 882 834 841 848 849 860 834 827 830 826 817 800 776 762 756 751 735 721 707 693 676 660 643 626 612 610 614 620 625 630 633 636 643 650 655 661 666 674 682 686
895 899 894 871 866 836 843 848 848 834 815 823 827 825 820 814 809 789 770 753 744 725 705 687 673 659 641 623 606 607 609 613 620 626 631 635 639 648 651 659 664 669 676 683
875 870 859 868 873 831 846 840 850 838 835 831 826 823 822 812 797 789 774 755 738 717 692 684 671 658 643 627 614 608 608 609 615 621 627 632 639 644 649 654 657 664 671 680
880 868 855 852 819 838 838 841 841 842 837 832 828 823 820 809 794 786 771 757 741 725 703 686 671 659 646 635 627 621 616 614 616 620 626 630 635 639 643 644 652 662 671 681
873 882 872 867 829 833 838 839 841 840 838 831 828 823 817 809 794 787 772 757 743 729 713 690 681 665 651 638 633 627 620 614 619 623 627 628 631 628 636 645 653 661 666 675
863 878 865 854 837 834 836 841 840 839 838 832 825 823 817 810 797 790 776 760 745 731 720 706 689 675 665 656 643 636 633 625 628 625 619 620 621 627 639 647 655 656 662 673
860 852 850 820 830 836 837 839 840 840 839 836 832 824 817 814 801 790 782 764 750 733 715 707 690 680 666 656 648 640 626 628 629 626 619 620 629 636 644 651 656 661 668 677
Wind_Speed
5 7 8 11 8 7 13 17 22 20 15 15 18 22 14 5 9 8 7 5 7 9 12 19 28 30 27 24 21 21 21 19 19 18 15 15 14 13 16 15 20 8 14 26
5 7 8 8 6 11 18 22 15 11 8 21 14 18 13 7 8 8 5 5 7 10 13 25 32 30 28 25 23 22 22 20 19 18 15 14 13 18 19 16 19 13 10 11
7 6 8 9 12 15 20 12 15 20 27 11 10 10 8 9 6 5 5 6 9 10 16 22 29 30 29 26 24 23 25 22 21 20 18 15 15 16 15 20 24 15 11 13
2 5 10 11 11 17 15 15 23 23 14 5 5 5 8 9 8 9 5 5 10 15 21 22 28 28 29 29 27 25 25 24 22 20 19 18 18 15 13 19 17 24 16 14
7 9 11 11 10 15 9 25 24 18 8 8 4 4 4 7 5 1 5 7 13 18 23 24 29 30 30 30 28 27 26 26 24 22 23 22 20 21 19 17 20 21 23 14
3 2 4 6 15 10 19 21 15 3 4 5 5 5 7 3 2 8 9 13 17 22 22 26 33 33 31 29 29 27 27 29 25 24 24 24 25 21 19 17 17 18 20 15
13 2 2 7 12 1 18 17 6 3 3 9 8 9 8 6 5 4 8 20 25 22 23 23 24 28 30 31 30 29 28 28 27 25 25 25 26 24 24 22 21 17 22 13
8 2 7 10 5 7 10 8 4 7 9 14 21 7 2 2 1 4 12 25 24 24 22 24 25 29 31 32 31 31 30 30 29 27 28 27 28 25 27 24 21 20 27 10
8 3 2 5 5 6 6 6 5 6 10 8 7 11 14 5 4 12 25 26 27 25 25 25 28 29 31 33 33 32 31 29 31 30 29 29 29 29 27 25 23 24 26 17
4 8 2 2 1 3 3 5 3 3 7 9 9 16 7 12 13 22 28 28 29 26 28 25 25 32 32 33 32 31 33 32 31 31 30 30 30 29 28 27 25 26 29 22
1 1 2 8 1 3 2 2 4 3 4 5 9 7 5 9 11 28 29 29 30 32 30 27 26 35 34 33 32 31 30 30 29 30 30 31 31 30 30 27 28 29 29 27
2 3 6 4 4 1 1 3 2 3 2 10 12 12 8 5 24 27 28 29 32 31 31 28 28 34 33 32 32 31 29 29 29 30 30 31 31 31 31 30 29 29 30 30
1 1 8 2 4 4 5 4 4 5 9 13 11 9 5 27 25 25 28 31 30 32 31 27 25 20 31 33 30 29 29 29 28 28 30 31 33 32 32 30 29 28 27 32
2 3 7 8 14 14 15 13 8 6 6 12 17 35 30 30 29 29 34 33 31 31 29 28 22 25 31 33 31 29 29 28 27 27 30 32 33 34 33 30 29 30 27 34
2 5 10 18 21 17 17 15 10 12 16 10 24 26 30 29 27 32 33 32 34 33 31 27 27 25 27 30 29 27 26 27 26 28 30 34 33 31 30 30 29 28 27 34
2 5 12 19 7 6 11 14 13 13 14 18 22 28 24 20 27 30 31 32 33 31 34 33 29 29 25 27 26 24 23 24 25 27 29 32 31 31 31 32 30 29 29 31
3 5 7 6 8 15 6 7 10 9 13 16 20 25 23 27 28 30 33 32 29 35 34 32 31 27 26 30 28 21 21 23 25 27 29 33 31 30 29 30 29 31 31 30
5 8 4 7 14 4 3 3 6 15 20 18 18 19 22 25 26 29 29 22 32 33 33 32 26 26 39 38 29 19 19 23 25 27 28 31 30 29 29 31 30 30 31 36
8 5 5 4 8 13 3 2 7 9 22 6 10 20 24 25 27 21 17 29 31 31 28 28 38 40 40 33 26 17 20 23 24 25 27 31 30 29 33 32 29 30 27 34
3 6 4 4 5 5 1 2 10 2 7 5 18 22 26 29 21 20 36 35 36 39 41 38 43 39 32 30 21 14 19 22 21 25 28 28 29 29 33 33 30 33 32 33
3 4 7 7 6 8 4 7 10 9 10 22 19 19 22 18 16 30 32 32 39 40 42 45 40 32 33 33 25 12 12 16 25 29 30 28 28 31 30 34 31 33 33 34
4 3 3 2 4 6 1 8 5 10 17 19 20 18 21 23 26 26 28 29 29 32 44 46 37 34 37 35 31 19 6 13 23 25 25 26 31 26 27 33 34 33 31 32
3 5 2 6 4 3 8 6 11 11 16 19 18 19 19 23 26 27 25 27 25 35 39 46 40 35 39 39 34 24 23 1 18 23 24 18 18 26 33 34 33 32 34 32
6 4 4 4 4 6 7 10 6 11 16 18 16 18 19 22 26 26 25 24 24 35 34 44 37 33 37 44 38 31 29 2 7 6 15 25 24 28 33 32 33 31 27 25
2 8 6 8 15 12 4 4 9 14 15 19 21 20 19 20 24 23 23 24 29 36 38 36 35 34 36 37 38 35 28 7 22 22 12 20 29 29 27 25 23 25 26 33
9 7 7 3 2 2 6 6 11 11 14 15 15 20 24 23 22 28 20 33 34 37 43 38 41 41 45 44 41 44 44 31 16 14 22 23 25 24 25 24 24 22 25 26
Wind_Direction
27 24 11 354 360 331 312 303 304 302 316 310 297 294 287 280 193 212 226 264 308 322 324 324 334 331 324 317 315 309 308 306 305 305 307 311 307 302 287 292 286 291 354 205
224 44 355 331 318 317 316 317 314 310 314 319 300 293 284 202 197 207 231 268 312 315 320 333 333 329 323 315 312 307 304 300 296 294 291 285 287 294 288 284 276 289 346 232
32 4 331 326 332 339 328 313 320 308 316 293 308 266 172 189 196 207 239 257 278 316 325 334 328 324 319 312 309 305 299 295 290 287 285 280 280 279 287 279 266 275 266 300
33 348 343 332 349 345 316 346 314 307 319 305 354 297 257 165 207 201 244 278 327 321 328 331 325 320 315 309 305 299 293 290 286 281 277 270 268 264 249 258 258 255 266 276
29 348 348 339 349 332 290 314 305 304 278 312 172 275 264 159 229 269 349 344 331 320 330 328 323 321 312 305 301 297 290 286 281 276 268 265 254 251 251 256 255 251 262 271
325 16 327 347 316 309 320 314 298 259 249 256 98 7 275 230 15 323 352 345 323 330 330 326 323 318 310 306 299 293 288 283 277 271 263 257 257 254 262 257 250 241 260 269
315 125 10 338 330 342 357 349 353 324 240 307 160 300 260 331 14 1 338 337 326 330 327 325 321 317 311 305 298 293 284 278 275 268 258 252 249 247 247 239 239 222 238 237
355 335 19 8 43 306 338 2 16 316 326 307 299 236 218 206 30 320 331 338 325 326 327 322 318 314 311 305 299 292 286 281 273 262 256 252 250 242 242 240 230 220 233 204
343 289 56 40 14 350 348 15 340 278 271 271 252 264 262 94 241 346 333 331 328 323 323 319 315 314 309 306 298 293 285 275 272 262 255 249 246 239 235 236 231 225 223 201
50 288 122 34 302 115 26 338 353 317 317 309 287 304 279 350 338 334 332 329 324 321 319 316 314 311 307 300 298 291 281 273 266 259 249 245 242 237 231 228 225 221 220 211
344 207 285 272 50 341 315 3 351 261 259 304 307 287 14 328 326 330 330 326 321 319 316 313 310 307 301 299 296 289 280 271 261 257 244 239 238 233 228 222 221 213 210 203
52 302 286 322 84 211 276 323 328 314 298 283 285 278 268 280 325 331 320 317 317 311 309 307 306 304 300 302 297 289 279 266 256 252 243 232 234 230 226 223 215 209 210 203
149 195 306 180 151 185 228 194 240 254 270 264 279 267 317 316 318 315 314 315 312 308 307 307 306 301 306 300 293 286 275 263 253 244 242 228 226 223 223 220 214 205 205 208
215 270 242 264 285 309 294 287 259 251 266 278 264 291 302 310 316 317 318 315 310 307 310 309 306 309 302 298 292 283 271 255 246 236 234 227 221 218 216 216 208 205 205 204
276 268 275 277 284 288 283 281 271 226 243 264 290 293 295 305 315 316 310 310 311 310 309 315 313 310 305 298 291 283 263 249 237 228 227 224 217 214 210 210 206 199 205 200
131 282 317 291 251 215 274 271 255 251 259 261 284 286 290 313 310 309 311 311 310 310 318 317 314 312 307 301 290 278 257 241 226 221 223 223 210 207 204 204 200 192 202 188
274 320 322 280 309 311 257 228 213 244 265 279 292 289 313 312 313 314 312 310 312 317 316 317 316 313 307 304 296 274 248 228 220 214 216 220 204 200 199 199 194 195 195 187
269 290 274 287 308 285 118 218 239 250 274 275 275 285 302 308 307 305 296 318 316 317 320 319 316 314 315 307 296 269 230 215 211 207 216 217 196 194 196 195 191 193 191 184
228 280 293 292 306 278 164 192 319 315 304 297 275 304 316 312 308 307 334 325 317 318 320 318 316 316 310 305 293 249 208 200 201 203 211 209 191 190 193 195 194 190 188 180
203 243 252 326 298 293 73 269 338 356 284 313 338 322 323 327 331 329 330 326 324 324 326 325 328 323 319 322 316 191 180 182 193 203 210 202 190 190 191 189 200 197 196 178
202 214 236 261 269 277 67 326 300 318 321 331 328 319 322 320 306 306 314 318 322 321 326 330 334 335 335 343 355 159 179 179 197 210 194 187 188 193 188 188 203 184 172 168
226 217 221 217 259 285 38 300 345 319 306 314 319 320 317 309 309 316 319 321 327 330 333 339 340 343 347 358 7 7 154 189 175 173 178 189 183 195 191 201 164 156 153 156
256 223 257 221 259 135 298 283 306 305 307 314 317 319 318 316 317 324 325 327 332 334 336 339 342 347 1 5 11 6 346 48 163 170 170 185 216 206 193 151 150 151 152 151
219 179 245 317 211 276 306 308 294 312 311 312 317 319 323 321 320 327 327 330 335 338 344 339 345 353 358 360 3 1 357 317 147 154 225 261 219 158 145 150 151 152 151 145
1 156 223 258 277 284 250 273 313 312 310 316 322 327 325 327 322 329 328 331 335 339 344 347 346 351 358 3 2 1 2 352 221 243 182 154 121 122 125 131 149 149 154 167
183 195 189 263 109 265 311 327 322 307 314 318 321 320 325 329 324 328 334 331 338 341 343 351 351 358 358 0 7 8 3 19 157 144 94 100 107 108 115 120 114 138 155 168